Regional Weather Roundup
Issued by NWS

Home | Current Version | Previous Version | Text Only | Print | Product List | Glossary On
Versions: 1 2 3 4 5 6 7 8 9 10 11 12 13 14 15 16 17 18 19 20 21 22 23 24 25 26 27 28 29 30 31 32 33 34 35 36 37 38 39 40 41 42 43 44 45 46 47 48 49 50
000
ASUS43 KIND 020659
RWRIN

WEATHER ROUNDUP FOR INDIANA
NATIONAL WEATHER SERVICE INDIANAPOLIS IN
300 AM EDT WED SEP 02 2015

NOTE: "FAIR" INDICATES FEW OR NO CLOUDS BELOW 12,000 FEET WITH NO
SIGNIFICANT WEATHER AND/OR OBSTRUCTIONS TO VISIBILITY.

* - STATION DOES NOT REPORT WEATHER SUCH AS PRECIPITATION OR FOG.

+ - STATION NOT QUALITY CONTROLLED BY THE NATIONAL WEATHER SERVICE.
    USE DATA WITH CAUTION...ESPECIALLY DEWPOINT AND RELATIVE
    HUMIDITY OBSERVATIONS.

INZ001>003-010>013-019-020-020800-
NORTHWEST INDIANA

CITY           SKY/WX    TMP DP  RH WIND       PRES   REMARKS
KNOX *+        CLEAR     68  68 100 S3        30.05F
MONTICELLO +   CLEAR     70  70  99 S5        30.06F

$$

LMZ046-743>745-020800-
SOUTHERN LAKE MICHIGAN

STATION/POSITION TIME  TEMP    WIND        PRES    WAVE
                       AIR SEA DIR/SP/G            HT
                 (UTC) (F)     (DEG/KT/KT) (MB)    (FT)
BURNS HARBOR     0600   76     210/ 10/ 12 1017.6F
MICHIGAN CITY    0600   76     180/  9/ 10   N/A
5NW MICH CITY    0600   75 72  230/  8/ 10   N/A     1

$$

INZ004-005-014>016-021>024-020800-
NORTH CENTRAL INDIANA

CITY           SKY/WX    TMP DP  RH WIND       PRES   REMARKS
GOSHEN         CLEAR     69  66  90 S3        30.07S
SOUTH BEND     PTCLDY    72  68  87 SW6       30.06F
WARSAW +       CLEAR     70  68  94 CALM      30.07F

$$

INZ006>009-017-018-025>027-020800-
NORTHEAST INDIANA

CITY           SKY/WX    TMP DP  RH WIND       PRES   REMARKS
ANGOLA *+        N/A     70  61  73 CALM      30.08S VSB 3/4
FORT WAYNE     CLEAR     69  66  90 S3        30.08F

$$

INZ028-029-035-036-043>045-051>053-020800-
WEST CENTRAL INDIANA

CITY           SKY/WX    TMP DP  RH WIND       PRES   REMARKS
CRAWFORDSVL +  CLEAR     63  63 100 CALM      30.09F
GREENCASTLE +  CLEAR     66  63  88 CALM      30.10F
LAFAYETTE      CLEAR     68  67  96 CALM      30.07F
TERRE HAUTE    CLEAR     64  63  96 CALM      30.09F

$$

INZ030>032-037>040-046>048-054>057-064-065-020800-
CENTRAL INDIANA

CITY           SKY/WX    TMP DP  RH WIND       PRES   REMARKS
FRANKFORT +    CLEAR    N/A N/A N/A CALM      30.10F
GREENWOOD *+   CLEAR     68  64  88 CALM      30.10F
INDIANAPOLIS   CLEAR     71  66  84 SW5       30.08F
-EAGLE CREEK   CLEAR     69  67  93 MISG      30.09F
KOKOMO *+      CLEAR     70  64  83 SW6       30.08F
MT COMFORT *+  CLEAR     68 N/A N/A S3        30.10F
SHELBYVILLE    PTCLDY    67  65  93 SE3       30.09F FOG
ZIONSVILLE +   CLEAR     65  62  89 CALM      30.10F

$$

INZ033-034-041-042-049-050-058-059-020800-
EAST CENTRAL INDIANA

CITY           SKY/WX    TMP DP  RH WIND       PRES   REMARKS
MUNCIE         PTCLDY    70  66  87 SW6       30.10F

$$

INZ060-061-067>069-081>083-085>088-020800-
SOUTHWEST INDIANA

CITY           SKY/WX    TMP DP  RH WIND       PRES   REMARKS
EVANSVILLE     CLEAR     72  70  93 CALM      30.09F FOG
HUNTINGBURG *+ MOCLDY    68  64  88 SE3       30.10F VSB 1/2

$$

INZ062-063-066-070>080-084-089>092-020800-
SOUTH CENTRAL AND SOUTHEAST INDIANA

CITY           SKY/WX    TMP DP  RH WIND       PRES   REMARKS
BLOOMINGTON    CLEAR     67  65  93 CALM      30.10F
MADISON *+     CLEAR     68  64  88 CALM      30.12F
SEYMOUR +      FOG       64  64 100 CALM      30.10F VSB 1/4

$$



USA.gov is the U.S. government's official web portal to all federal, state and local government web resources and services.